Flag for U.S.A. Weather past 2 weeks in Columbus, Georgia, U.S.A.

59 °F

Mostly cloudy.

Feels Like: 58 °F
Forecast: 59 / 67 °F
Wind: 8 mph from Northwest

Location: Columbus Metropolitan Airport

Current Time: Oct 4, 2015 at 7:09:15 AM

Latest Report: Oct 4, 2015 at 5:51 AM

Visibility: 10 mi

Pressure: 29.67 "Hg

Humidity: 93%

Dew point: 57 °F

Location of ColumbusLocation

Historic Weather in Columbus — Graph


Columbus temperature yesterday

Maximum temperature yesterday: 70 °F (at 2:51 PM)
Minimum temperature yesterday: 60 °F (at 6:51 AM)
Average temperature yesterday: 63 °F

Past Weeks' High & Low Weather Summary

High91 °F (Sep 20, 1:51 PM)100% (Sep 29, 1:03 AM)30.11 "Hg (Sep 29, 1:03 AM)
Low58 °F (Oct 4, 1:51 AM)33% (Sep 20, 1:51 PM)29.63 "Hg (Oct 3, 2:51 PM)
Average71 °F80%29.91 "Hg
* Reported Sep 19 5:51 AM — Oct 4 5:51 AM, Columbus, Weather by CustomWeather, © 2015

Note: Actual official high and low records may vary slightly from our data, if they occured in-between our weather recording intervals... More about our weather records


Columbus weather history for previous 24 hours

Time TempWeatherWind HumidityBarometerVisibility
5:51 AM
Sun, Oct 4
59 °FMostly cloudy.8 mph93%29.67 "Hg10 mi
5:03 AM59 °FLow clouds.8 mph94%29.68 "Hg10 mi
3:51 AM58 °FLight rain. Mostly cloudy.7 mph93%29.68 "Hg9 mi
2:51 AM58 °FFog.8 mph97%29.69 "Hg5 mi
1:51 AM58 °FFog.10 mph97%29.69 "Hg5 mi
12:51 AM59 °FLow clouds.9 mph93%29.70 "Hg10 mi
11:51 PM
Sat, Oct 3
60 °FLow clouds.10 mph93%29.70 "Hg8 mi
10:51 PM61 °FLight rain. Fog.9 mph93%29.69 "Hg5 mi
9:51 PM62 °FLight rain. Fog.8 mph93%29.67 "Hg5 mi
8:51 PM62 °FLight rain. Fog.9 mph93%29.67 "Hg3 mi
7:51 PM62 °FLight rain. Fog.6 mph96%29.66 "Hg3 mi
7:00 PM63 °FMore clouds than sun.7 mph94%29.66 "Hg9 mi
4:51 PM64 °FLight rain. Cloudy.8 mph90%29.63 "Hg7 mi
4:00 PM68 °FMostly cloudy.12 mph73%29.64 "Hg10 mi
3:02 PM70 °FMostly cloudy.10 mph64%29.64 "Hg10 mi
2:51 PM70 °FMostly cloudy.8 mph61%29.63 "Hg10 mi
1:51 PM69 °FMostly cloudy.6 mph63%29.65 "Hg10 mi
12:51 PM66 °FOvercast.5 mph70%29.66 "Hg10 mi
11:51 AM65 °FOvercast.8 mph70%29.68 "Hg10 mi
10:51 AM64 °FPartly sunny.9 mph73%29.68 "Hg10 mi
9:51 AM62 °FMostly cloudy.6 mph75%29.67 "Hg10 mi
9:03 AM61 °FOvercast.7 mph77%29.68 "Hg10 mi
8:51 AM60 °FOvercast.6 mph80%29.67 "Hg10 mi
7:51 AM60 °FOvercast.No wind80%29.68 "Hg10 mi
Weather by CustomWeather, © 2015

See weather overviewHow to use our weather pages